Jackson, KY

3:46 PM EDT on April 29, 2017 (GMT -0400)
Carroll

Weather History for KJKL - July, 2013

Change the Weather History Date:

Saturday, July 13, 2013

  Actual Average Record
Temperature  
Mean Temperature 71 °F 76 °F  
Max Temperature 82 °F 85 °F 95 °F (1995)
Min Temperature 60 °F 66 °F 59 °F (1999)
Degree Days  
Heating Degree Days 0 0  
Month to date heating degree days 0 0  
Since 1 June heating degree days 0 12  
Since 1 July heating degree days 0 0  
Cooling Degree Days 6 11  
Month to date cooling degree days 108 133  
Year to date cooling degree days 480 492  
Since 1 June cooling degree days 332 356  
Growing Degree Days 21 (Base 50)    
Moisture  
Dew Point 63 °F    
Average Humidity 82    
Maximum Humidity 100    
Minimum Humidity 63    
Precipitation  
Precipitation 0.61 in 0.15 in 2.38 in (1990)
Month to date precipitation 4.40 1.89  
Year to date precipitation 30.96 27.10  
Snow  
Snow 0.00 in 0.00 in - ()
Month to date snowfall 0.0 0.0  
Since 1 June snowfall 0.0 0.0  
Since 1 July snowfall 0.0 0.0  
Snow Depth 0.00 in    
Sea Level Pressure  
Sea Level Pressure 30.09 in    
Wind  
Wind Speed 1 mph (WNW)    
Max Wind Speed 7 mph    
Max Gust Speed 15 mph    
Visibility 6 miles    
Events Fog , Rain , Thunderstorm    
T = Trace of Precipitation, MM = Missing Value Source: NWS Daily Summary

Daily Weather History Graph

Daily Weather History Graph

Search for Another Location

Airport or City:

Trip Planner

Search our weather history database for the weather conditions in past years. The results will help you decide how hot, cold, wet, or windy it might be!

Date:

Astronomy

Jul. 13, 2013 Rise Set
Actual Time 6:22 AM EDT 8:55 PM EDT
Civil Twilight 5:52 AM EDT 9:25 PM EDT
Nautical Twilight 5:14 AM EDT 10:03 PM EDT
Astronomical Twilight 4:32 AM EDT 10:45 PM EDT
Moon 11:30 AM EDT (7/13) 11:43 PM EDT (7/13)
Length of Visible Light 15h 33m
Length of Day
14h 32m
Waxing Crescent, 25% of the Moon is Illuminated
Jul 13
Waxing Crescent
Jul 15
First Quarter
Jul 22
Full
Jul 29
Last Quarter
Aug 6
New

Hourly Weather History & Observations

Time (EDT) Temp. Heat Index Dew Point Humidity Pressure Visibility Wind Dir Wind Speed Gust Speed Precip Events Conditions
12:53 AM 64.9 °F - 59.0 °F 81% 30.03 in 10.0 mi Variable 3.5 mph - N/A   Clear
1:53 AM 63.0 °F - 59.0 °F 87% 30.03 in 10.0 mi Calm Calm - N/A   Clear
2:53 AM 62.1 °F - 57.9 °F 86% 30.01 in 10.0 mi Calm Calm - N/A   Clear
3:53 AM 61.0 °F - 57.9 °F 90% 30.01 in 10.0 mi Calm Calm - N/A   Clear
4:53 AM 60.1 °F - 57.9 °F 93% 30.02 in 10.0 mi Calm Calm - N/A   Scattered Clouds
5:15 AM 60.8 °F - 57.2 °F 88% 30.05 in 9.0 mi Calm Calm - N/A   Scattered Clouds
5:28 AM 60.8 °F - 59.0 °F 94% 30.05 in 8.0 mi Calm Calm - N/A   Mostly Cloudy
5:53 AM 60.1 °F - 59.0 °F 96% 30.03 in 7.0 mi Calm Calm - N/A   Overcast
6:53 AM 61.0 °F - 59.0 °F 93% 30.04 in 4.0 mi Calm Calm - 0.00 in Rain Light Rain
7:39 AM 62.6 °F - 60.8 °F 94% 30.08 in 7.0 mi Calm Calm - 0.00 in Thunderstorm Thunderstorm
7:53 AM 61.0 °F - 60.1 °F 97% 30.06 in 2.0 mi Variable 3.5 mph - 0.05 in Rain , Thunderstorm Heavy Thunderstorms and Rain
7:55 AM 60.8 °F - 60.8 °F 100% 30.09 in 1.8 mi Variable 3.5 mph - 0.00 in Rain , Thunderstorm Light Thunderstorms and Rain
7:57 AM 60.8 °F - 60.8 °F 100% 30.09 in 1.2 mi Variable 3.5 mph - 0.00 in Rain , Thunderstorm Light Thunderstorms and Rain
8:05 AM 60.8 °F - 60.8 °F 100% 30.10 in 0.8 mi Calm Calm - 0.13 in Rain , Thunderstorm Heavy Thunderstorms and Rain
8:10 AM 60.8 °F - 60.8 °F 100% 30.11 in 2.0 mi Calm Calm - 0.20 in Rain , Thunderstorm Light Thunderstorms and Rain
8:17 AM 60.8 °F - 60.8 °F 100% 30.11 in 1.8 mi Calm Calm - 0.20 in Rain , Thunderstorm Light Thunderstorms and Rain
8:26 AM 60.8 °F - 60.8 °F 100% 30.11 in 2.0 mi Calm Calm - 0.21 in Rain , Thunderstorm Light Thunderstorms and Rain
8:34 AM 60.8 °F - 60.8 °F 100% 30.12 in 3.0 mi Calm Calm - 0.22 in Rain , Thunderstorm Thunderstorms and Rain
8:39 AM 60.8 °F - 60.8 °F 100% 30.12 in 1.8 mi Calm Calm - 0.23 in Rain , Thunderstorm Light Thunderstorms and Rain
8:43 AM 60.8 °F - 60.8 °F 100% 30.13 in 0.8 mi ESE 3.5 mph - 0.23 in Rain , Thunderstorm Light Thunderstorms and Rain
8:53 AM 61.0 °F - 60.1 °F 97% 30.10 in 0.2 mi Calm Calm - 0.28 in Fog , Rain , Thunderstorm Heavy Thunderstorms and Rain
9:13 AM 60.8 °F - 60.8 °F 100% 30.13 in 1.8 mi Variable 3.5 mph - 0.19 in Rain , Thunderstorm Light Thunderstorms and Rain
9:15 AM 60.8 °F - 60.8 °F 100% 30.13 in 3.0 mi Variable 3.5 mph - 0.19 in Rain , Thunderstorm Light Thunderstorms and Rain
9:22 AM 62.6 °F - 60.8 °F 94% 30.12 in 1.5 mi Calm Calm - 0.19 in Rain Light Rain
9:32 AM 62.6 °F - 60.8 °F 94% 30.13 in 0.8 mi Calm Calm - 0.23 in Rain Light Rain
9:37 AM 62.6 °F - 62.6 °F 100% 30.13 in 1.8 mi Calm Calm - 0.23 in Rain Light Rain
9:44 AM 64.4 °F - 62.6 °F 94% 30.13 in 9.0 mi Calm Calm - 0.23 in   Overcast
9:53 AM 64.9 °F - 63.0 °F 93% 30.09 in 7.0 mi Calm Calm - 0.23 in   Mostly Cloudy
10:53 AM 69.1 °F - 64.0 °F 84% 30.09 in 10.0 mi Calm Calm - N/A   Partly Cloudy
11:53 AM 73.0 °F - 64.9 °F 76% 30.09 in 10.0 mi Variable 4.6 mph - N/A   Clear
12:53 PM 75.9 °F - 66.0 °F 71% 30.09 in 10.0 mi Variable 4.6 mph - N/A   Clear
1:53 PM 78.1 °F - 66.9 °F 68% 30.09 in 10.0 mi Calm Calm - N/A   Mostly Cloudy
2:53 PM 79.0 °F - 66.0 °F 64% 30.07 in 10.0 mi Calm Calm - N/A   Scattered Clouds
3:53 PM 73.0 °F - 70.0 °F 90% 30.08 in 3.0 mi WSW 4.6 mph - 0.02 in Rain Rain
4:01 PM 71.6 °F - 68.0 °F 88% 30.11 in 3.0 mi WNW 4.6 mph - 0.01 in Rain Rain
4:12 PM 75.2 °F - 69.8 °F 83% 30.10 in 10.0 mi Calm Calm - 0.03 in   Scattered Clouds
4:25 PM 78.8 °F - 69.8 °F 74% 30.10 in 10.0 mi Calm Calm - 0.03 in   Partly Cloudy
4:53 PM 79.0 °F - 69.1 °F 72% 30.06 in 10.0 mi NW 5.8 mph - 0.03 in   Clear
5:53 PM 82.0 °F 84.9 °F 68.0 °F 62% 30.06 in 10.0 mi Calm Calm - N/A   Clear
6:53 PM 80.1 °F 82.7 °F 68.0 °F 67% 30.06 in 10.0 mi Calm Calm - N/A   Partly Cloudy
7:53 PM 75.0 °F - 68.0 °F 79% 30.08 in 10.0 mi Calm Calm - N/A   Clear
8:53 PM 75.0 °F - 66.9 °F 76% 30.08 in 10.0 mi Calm Calm - N/A   Clear
9:53 PM 73.9 °F - 66.9 °F 79% 30.10 in 10.0 mi Calm Calm - N/A   Clear
10:53 PM 75.0 °F - 66.0 °F 73% 30.11 in 10.0 mi Variable 3.5 mph - N/A   Clear
11:53 PM 73.9 °F - 64.9 °F 73% 30.11 in 10.0 mi Calm Calm - N/A   Clear